Location: Unspecified
(0.0000°N, 0.0000°E)
Time: 15:54:13
(UTC+00:00)

Envisat - Pass Details

Date: 21 September 2020
Orbit: 764 x 766 km, 98.1° (Epoch: 19 September)

Event Time Altitude Azimuth Distance (km) Brightness Sun altitude
Rises 04:31:24 0° 51° (NE) 3,217 7.0 -20.4°
Reaches altitude 10° 04:35:18 10° 81° (E) 2,296 6.7 -19.4°
Maximum altitude 04:37:07 12° 103° (ESE) 2,169 6.5 -19.0°
Drops below altitude 10° 04:38:56 10° 124° (SE) 2,300 6.3 -18.5°
Sets 04:42:50 0° 154° (SSE) 3,230 6.6 -17.5°
